Погода в Стежках

Россия / Тамбовская область     53°04′57″N   41°12′55″E
темп.,
°C
ветер,
м/с
пор.,
м/с
влажн.,
%
обл.,
%
осадки,
мм/ч
давл.,
гПа
погр.,
м
27 июня, пн
пн2700:00+16в34880 0.0 102145
03:00+15в22750 0.0 102117
06:00+17юв11730 0.0 102155
09:00+22ююз11580 0.0 1021403
12:00+25сз22480 0.0 1020850
15:00+27зсз33550 0.0 10191129
18:00+27зсз35680 0.1 1017530
21:00+22зсз33820 0.4 101739
28 июня, вт
вт2800:00+20сз239312 3.4 101637
03:00+18с36890 3.9 101793
06:00+19с37880 0.0 1017171
09:00+24ссв56710 0.0 1017558
12:00+25ссв67630 0.0 10171255
15:00+23ссв78590 0.1 10181096
18:00+20ссв610610 0.0 1019495
21:00+15всв34720 0.0 102060
29 июня, ср
ср2900:00+13в22820 0.0 102124
03:00+11всв22792 0.0 102215
06:00+13св22750 0.0 1023111
09:00+17св22590 0.0 1022771
12:00+20с234931 0.0 10221927
15:00+21с434624 0.0 10211901
18:00+19с455821 0.0 1020584
21:00+14св227120 0.0 102112
30 июня, чт
чт3000:00+12ссв11740 0.0 102110
03:00+11зсз22758 0.0 102012
06:00+14зсз237615 0.0 1020104
09:00+18сз45615 0.0 1019650
12:00+21ссз56515 0.0 10181670
15:00+22ссз6747100 0.0 10181855
18:00+21сз47574 0.0 1017693
21:00+16зсз4107728 0.0 1017176
1 июля, пт
пт100:00+16ссз3773100 0.0 1017158
03:00+13с35770 0.0 101867
06:00+14ссв37770 0.0 1020194
09:00+19св34570 0.0 1020692
12:00+21с45450 0.0 10201762
15:00+22с45440 0.0 10201781
18:00+21ссв35555 0.0 1020725
21:00+16ссз11645 0.0 102111